GFSGL_850_temp_159.txt.gz
Temp
9 10 10 11 11 11 10 11 11 11 11 10 10 10 10 10 10 10 10 10 10 9 9 9 8 8 7 8 8 8 9 9 9 9 8 8 7 7 7 7 6 6 5
9 9 10 10 11 11 10 10 10 9 8 8 9 9 9 10 10 9 9 9 9 8 8 8 8 8 7 7 8 9 9 8 8 8 7 7 7 6 6 5 5 5 4
8 9 9 9 9 9 10 10 9 9 9 9 9 9 9 9 10 9 9 9 8 8 8 9 9 8 8 8 8 8 9 8 7 7 6 6 6 5 5 5 4 3 3
9 9 9 8 9 9 9 9 9 9 9 9 9 9 9 9 9 9 8 9 8 9 9 8 8 7 7 7 8 8 8 7 6 6 6 6 5 5 4 4 3 2 2
9 10 10 9 9 9 9 9 8 8 9 9 9 9 9 8 8 8 8 8 8 8 8 7 7 7 7 7 7 7 6 6 6 5 5 5 4 4 4 3 2 2 1
9 9 8 8 8 9 8 8 8 8 8 8 8 9 9 8 8 8 8 8 8 7 7 7 7 7 6 6 6 6 5 5 5 5 4 4 3 3 2 2 1 1 -0
9 9 8 8 8 8 8 8 8 7 7 8 8 8 8 8 8 8 8 7 7 7 7 7 6 6 6 6 5 5 5 4 4 3 3 3 2 2 1 1 0 -0 -1
9 9 8 8 8 7 7 7 7 7 7 7 7 7 7 7 7 7 7 7 6 6 6 6 6 5 5 4 4 3 3 3 3 2 2 1 1 0 -0 -1 -1 -2 -2
9 9 8 8 8 7 7 6 7 7 7 7 7 7 7 6 6 6 6 6 6 5 5 4 4 4 4 4 3 3 3 2 2 1 0 -0 -2 -2 -3 -3 -3 -3 -4
9 9 8 7 7 7 5 5 5 5 6 6 7 6 6 6 5 5 5 6 5 5 4 4 4 4 4 4 3 3 2 1 -1 -2 -3 -3 -4 -4 -5 -5 -5 -5 -5
9 8 8 7 7 5 5 5 5 5 5 5 6 5 5 5 5 5 5 5 6 5 5 4 4 4 3 3 2 1 -0 -1 -2 -3 -3 -3 -4 -4 -4 -5 -5 -5 -5
9 8 7 7 5 5 6 5 5 6 6 5 5 5 5 4 4 4 4 5 4 4 4 3 3 3 3 3 2 0 -2 -2 -3 -3 -3 -4 -4 -4 -5 -5 -5 -5 -5
8 8 7 6 5 5 6 6 5 5 6 6 6 6 5 4 4 4 4 4 4 4 4 3 3 2 1 0 -0 -2 -2 -3 -3 -4 -4 -4 -5 -5 -5 -5 -5 -5 -5
9 8 7 5 5 5 5 6 6 6 6 6 6 5 5 5 5 4 4 4 4 4 3 2 2 1 0 -0 -1 -2 -2 -3 -4 -4 -5 -5 -5 -5 -5 -5 -5 -6 -6
8 8 7 5 5 5 6 6 6 6 6 6 6 6 6 5 4 4 4 4 3 3 2 2 1 0 -0 -1 -2 -2 -3 -3 -4 -4 -5 -5 -6 -6 -6 -6 -6 -6 -6
8 7 6 5 5 6 6 5 5 5 5 4 4 5 4 4 5 4 4 3 3 2 2 1 1 -0 -1 -2 -2 -2 -3 -4 -4 -5 -5 -5 -6 -6 -6 -6 -6 -6 -7
7 6 5 6 6 6 6 6 6 4 4 4 4 4 4 4 4 4 4 3 3 2 1 1 0 -1 -1 -2 -2 -3 -4 -4 -4 -5 -5 -6 -7 -7 -6 -7 -7 -7 -7
6 6 5 7 6 7 7 7 7 7 6 5 4 4 4 4 4 4 4 3 3 2 1 1 -0 -1 -1 -1 -2 -3 -4 -4 -5 -5 -5 -6 -6 -7 -7 -7 -7 -7 -7
6 6 7 7 7 7 7 6 6 6 6 6 5 4 4 4 4 4 4 3 3 1 1 1 -0 -0 -1 -2 -2 -3 -3 -4 -5 -5 -6 -7 -7 -7 -7 -7 -7 -7 -8
7 8 8 7 7 7 7 6 6 6 6 6 6 5 5 4 5 5 4 3 2 1 1 1 -0 -0 -1 -2 -2 -3 -3 -4 -5 -6 -6 -7 -7 -7 -8 -8 -8 -8 -8
8 8 8 8 8 8 7 7 7 6 6 6 6 6 5 5 5 4 4 3 2 1 1 1 -0 -1 -1 -2 -2 -3 -3 -4 -5 -5 -6 -6 -6 -7 -7 -8 -8 -8 -8
9 9 8 8 8 8 8 8 7 7 7 6 6 6 5 5 4 4 3 3 2 1 1 0 -1 -1 -1 -2 -2 -2 -3 -3 -4 -5 -5 -5 -6 -7 -8 -9 -9 -9 -9
9 9 9 8 8 8 8 8 7 7 7 6 6 6 6 5 4 4 3 2 2 1 1 -0 -1 -1 -1 -1 -2 -2 -2 -3 -3 -4 -4 -5 -5 -5 -8 -9 -9 -10 -10
10 10 9 9 9 9 9 8 8 7 7 7 6 6 6 5 4 4 3 2 2 1 1 -0 -1 -1 -1 -1 -1 -2 -2 -2 -2 -3 -3 -4 -5 -6 -7 -9 -9 -9 -10
10 10 10 10 9 9 9 8 8 8 7 7 7 6 6 5 4 4 3 2 2 1 1 -0 -0 -1 -1 -1 -1 -1 -2 -2 -2 -2 -3 -4 -5 -6 -7 -9 -10 -10 -10
10 10 10 10 10 9 9 9 8 8 8 7 7 6 6 5 4 4 3 3 2 1 1 0 -0 -0 -1 -1 -1 -1 -1 -2 -2 -2 -3 -4 -5 -6 -7 -10 -10 -10 -10

GFSGL_850_temp_162.txt.gz
Temp
9 10 10 10 10 10 10 11 11 12 12 11 11 11 11 9 10 10 10 10 10 10 10 9 9 8 9 8 8 8 9 9 9 8 8 8 8 8 8 7 7 6 6
9 10 10 10 10 10 11 10 10 10 10 9 9 8 9 10 9 10 10 10 10 10 10 9 8 8 8 9 9 8 8 8 8 8 8 8 7 8 7 6 5 5 5
9 9 9 10 9 10 10 10 9 9 9 9 9 9 9 9 9 10 10 10 10 9 8 8 8 9 9 8 7 8 7 7 7 7 7 7 6 6 6 5 4 4 4
8 9 8 8 9 9 9 9 9 10 9 9 9 9 9 9 9 9 9 9 9 8 8 8 8 8 8 7 7 7 7 7 7 7 6 6 5 5 4 4 4 3 3
9 8 9 9 9 9 8 8 9 10 9 9 9 9 9 9 9 9 8 8 8 8 8 8 7 7 7 7 7 6 6 6 6 6 5 5 4 4 4 3 2 2 2
9 8 9 9 9 9 8 8 8 9 9 8 8 8 8 8 8 8 8 8 8 7 7 7 7 7 7 6 6 6 6 5 6 5 4 3 4 3 3 2 1 1 1
9 8 8 8 8 8 8 8 8 8 8 8 8 8 8 8 8 8 8 8 8 7 7 7 6 6 6 6 6 6 5 5 5 4 3 3 2 2 2 1 0 -1 -0
8 8 8 8 8 8 8 8 8 8 8 8 8 8 8 7 8 7 7 7 7 6 6 6 5 5 5 5 5 5 4 4 4 3 2 2 1 1 1 0 -1 -2 -2
8 8 8 8 8 8 8 7 7 7 7 7 7 7 7 7 7 7 7 6 6 5 5 5 5 5 5 5 4 4 3 3 2 2 1 1 1 0 -1 -3 -3 -2 -2
8 8 8 8 7 7 7 7 7 7 7 6 6 6 6 6 6 6 6 6 6 6 5 5 5 5 5 5 4 3 1 -0 -1 -2 -3 -3 -3 -4 -4 -4 -4 -3 -4
8 8 7 7 7 6 5 5 6 6 7 7 6 5 5 5 5 5 6 6 6 6 6 5 5 4 4 4 3 -0 -1 -2 -1 -2 -3 -3 -3 -3 -4 -4 -4 -4 -4
8 8 7 7 6 5 5 5 5 5 6 5 5 4 4 5 5 5 5 6 6 6 5 4 4 4 4 3 2 2 -0 -2 -3 -3 -3 -3 -3 -3 -4 -5 -5 -5 -5
8 8 7 7 6 5 5 5 5 5 6 5 5 5 5 4 4 5 5 5 5 5 4 4 3 3 2 2 1 -1 -1 -2 -3 -3 -3 -3 -4 -4 -5 -5 -5 -5 -5
8 7 7 7 5 5 5 6 6 5 5 5 5 6 5 4 5 5 4 4 4 4 4 3 2 2 1 0 -0 -1 -2 -3 -4 -4 -4 -5 -5 -5 -5 -5 -5 -5 -5
8 7 7 6 6 5 5 6 6 6 6 6 6 6 6 5 5 5 5 5 4 3 3 2 1 0 -0 -1 -1 -2 -3 -4 -5 -5 -5 -5 -5 -5 -6 -6 -6 -6 -6
8 7 7 6 6 6 6 6 6 6 6 6 6 6 6 6 6 5 4 4 3 2 2 1 1 -0 -1 -2 -3 -3 -3 -4 -5 -5 -6 -6 -6 -6 -6 -6 -6 -6 -6
9 8 7 5 6 6 6 5 5 5 5 5 5 5 5 6 5 4 4 3 3 2 2 1 0 -0 -1 -1 -2 -2 -3 -3 -3 -4 -5 -6 -6 -7 -7 -7 -7 -7 -7
8 8 7 5 6 6 6 5 6 6 5 5 4 5 4 5 5 4 3 3 3 2 1 1 0 -0 -1 -1 -2 -2 -3 -3 -4 -4 -5 -5 -5 -6 -6 -7 -7 -7 -7
8 8 6 5 6 7 6 6 6 6 6 6 5 4 4 4 4 4 3 3 2 1 1 0 -0 -0 -1 -1 -2 -2 -3 -4 -4 -5 -5 -6 -6 -6 -7 -7 -7 -8 -8
7 7 6 5 6 6 7 6 6 6 6 6 5 5 4 4 4 3 3 2 2 1 1 0 -0 -1 -1 -1 -2 -2 -3 -3 -4 -4 -5 -5 -5 -7 -8 -8 -8 -8 -8
7 6 6 6 6 7 7 7 6 6 6 6 6 6 6 6 4 4 3 3 2 1 1 0 -0 -1 -1 -1 -1 -2 -2 -3 -3 -4 -4 -5 -5 -7 -8 -8 -8 -8 -8
7 6 6 6 7 7 7 7 7 6 6 6 6 5 5 4 4 4 3 3 2 1 1 0 -0 -0 -0 -1 -1 -2 -2 -2 -3 -3 -4 -5 -7 -7 -9 -9 -9 -9 -9
7 7 6 6 7 7 7 7 7 7 6 6 6 6 5 4 4 4 4 3 3 2 1 0 -0 -0 -0 -1 -1 -1 -2 -2 -2 -3 -3 -5 -6 -7 -9 -9 -9 -9 -9
8 7 7 7 7 7 8 8 7 7 7 7 6 6 6 5 4 4 4 3 3 2 1 1 0 0 0 -0 -1 -1 -1 -2 -2 -3 -3 -4 -5 -6 -8 -9 -9 -9 -9
8 8 7 8 8 8 8 8 8 7 7 7 7 6 6 5 5 4 4 3 3 2 2 1 1 1 0 -0 -0 -1 -1 -1 -2 -2 -3 -4 -4 -6 -8 -9 -9 -9 -9
8 8 8 8 8 9 9 9 8 8 8 7 7 6 6 6 5 5 4 4 3 3 2 1 1 1 0 0 -0 -1 -1 -1 -2 -2 -3 -4 -5 -6 -8 -9 -10 -9 -10

GFSGL_850_temp_165.txt.gz
Temp
10 10 10 10 10 11 11 11 11 11 11 11 11 11 11 10 10 10 10 10 10 10 10 9 9 8 8 8 8 8 9 10 9 8 9 8 8 8 8 8 7 7 7
10 10 10 10 10 11 11 11 11 11 11 10 10 10 9 9 10 9 10 10 10 10 10 9 9 8 7 8 8 8 8 8 8 8 8 8 8 7 7 7 6 6 5
9 9 9 10 10 10 11 10 10 10 9 9 8 9 8 9 9 9 10 10 10 10 9 9 9 8 7 8 8 8 8 8 7 8 8 8 7 7 6 6 5 5 4
8 8 8 8 8 9 9 9 10 9 9 8 8 9 9 9 9 9 9 10 9 9 8 8 8 7 7 8 8 8 7 7 7 7 7 6 6 6 5 5 4 4 3
8 9 8 8 8 9 8 9 9 9 9 9 9 9 8 8 9 9 9 8 8 8 7 8 8 7 7 7 7 7 6 7 6 6 6 5 5 4 4 4 3 2 2
8 8 9 8 8 9 8 8 9 9 8 8 9 8 8 8 8 8 8 8 8 8 7 7 7 7 7 7 6 6 6 6 5 4 4 3 3 2 2 1 1 1 1
8 9 9 8 8 9 8 8 8 8 8 9 9 8 8 8 8 8 8 8 7 7 7 7 7 6 6 6 5 5 5 4 3 2 2 2 1 2 2 0 0 0 0
7 8 8 7 8 9 8 8 8 8 8 8 8 8 8 8 8 8 8 7 7 6 6 6 6 5 5 4 4 5 5 4 4 3 3 3 2 2 2 1 0 -0 -1
8 8 8 8 8 8 8 7 7 8 7 7 7 7 7 7 7 7 7 6 6 5 4 5 5 5 4 4 5 5 5 4 3 2 2 1 1 0 0 -2 -3 -2 -1
8 8 8 8 8 8 7 7 7 7 7 7 6 7 7 6 6 6 6 6 6 5 5 5 5 6 6 5 3 1 0 -0 -1 -1 -2 -2 -2 -2 -3 -3 -3 -3 -4
8 8 8 7 7 7 7 7 6 6 6 6 6 6 6 5 5 5 5 5 5 5 6 6 6 5 5 4 3 1 0 0 -0 -2 -2 -2 -2 -2 -3 -4 -4 -5 -4
8 8 7 7 7 6 6 6 6 6 5 4 5 5 5 5 5 6 6 6 6 6 6 5 4 4 4 4 3 2 0 -1 -2 -2 -2 -2 -2 -3 -3 -4 -5 -5 -5
8 7 7 7 5 5 5 5 5 5 4 4 4 5 5 5 5 5 6 6 6 6 5 4 4 3 3 2 2 1 -1 -2 -2 -2 -2 -3 -4 -4 -5 -5 -5 -5 -5
8 7 7 7 5 4 4 4 4 4 4 5 5 5 5 5 5 5 6 5 5 5 4 3 2 2 2 1 0 -0 -0 -1 -2 -3 -3 -4 -5 -5 -5 -5 -5 -5 -5
8 7 6 7 5 4 4 4 4 4 6 6 6 7 7 6 6 5 5 5 5 4 3 2 2 1 1 0 -0 -1 -2 -3 -4 -4 -4 -4 -5 -6 -6 -6 -6 -6 -6
7 7 7 7 5 4 4 5 4 7 7 7 7 7 6 6 6 5 5 4 4 3 2 2 1 -0 -1 -2 -2 -2 -3 -3 -4 -4 -5 -5 -6 -6 -6 -6 -6 -6 -6
8 7 7 7 5 3 5 6 6 6 5 6 6 7 7 6 5 5 4 4 3 2 1 1 0 -0 -1 -1 -2 -2 -2 -2 -3 -4 -4 -6 -5 -5 -6 -7 -7 -7 -6
8 8 7 7 5 4 5 6 6 6 6 5 5 6 6 6 5 5 4 3 3 2 2 1 0 -0 -1 -1 -1 -2 -2 -3 -3 -3 -4 -4 -5 -6 -6 -7 -7 -8 -7
8 7 7 7 6 4 4 6 6 6 6 5 5 5 5 5 5 4 3 3 3 2 2 1 0 -0 -1 -1 -1 -2 -2 -3 -3 -4 -4 -5 -5 -6 -7 -7 -7 -8 -8
8 8 6 7 6 4 4 6 6 6 6 6 5 5 5 4 5 4 3 3 3 2 2 1 -0 -0 -1 -1 -1 -1 -2 -2 -4 -3 -4 -4 -5 -7 -8 -8 -8 -8 -9
8 7 6 8 7 6 5 6 6 7 7 6 6 6 6 5 5 5 4 4 3 2 2 1 0 -0 -0 -1 -1 -1 -2 -2 -2 -2 -3 -3 -5 -7 -6 -7 -9 -9 -9
8 8 6 7 7 6 6 6 7 7 7 7 6 6 6 5 5 4 4 4 3 3 2 1 0 -0 -0 -0 -0 -1 -1 -1 -1 -2 -2 -4 -5 -6 -8 -8 -8 -9 -9
7 7 7 7 6 6 6 6 7 7 7 7 6 6 5 4 4 5 5 4 4 3 2 1 1 0 0 0 0 -0 -0 -1 -1 -2 -2 -4 -5 -6 -8 -8 -9 -9 -9
7 7 7 6 6 6 6 6 7 7 7 7 7 6 6 5 5 5 5 4 4 3 2 1 1 1 0 0 1 0 -0 -1 -1 -2 -3 -3 -5 -6 -7 -9 -9 -9 -10
6 7 7 6 6 6 6 7 7 7 7 7 7 7 6 6 6 5 5 4 4 3 2 1 1 1 1 1 1 0 -0 -1 -1 -2 -2 -3 -4 -6 -7 -8 -9 -9 -10
6 7 7 7 7 7 6 7 7 7 7 7 7 7 7 6 6 6 5 5 4 3 2 2 2 1 1 1 1 0 -0 -1 -1 -2 -2 -3 -4 -5 -6 -8 -9 -9 -9

GFSGL_850_temp_168.txt.gz
Temp
10 10 10 9 10 9 10 10 10 11 11 11 11 11 10 10 9 10 10 10 10 10 10 9 9 8 9 8 8 8 8 8 8 8 8 8 7 8 8 7 7 7 7
9 10 10 10 10 10 10 10 10 11 11 11 11 10 10 9 10 10 10 10 10 10 9 9 9 9 8 8 8 8 8 7 8 8 7 7 7 7 7 6 6 6 5
9 9 9 9 10 10 11 11 10 10 10 9 9 8 8 9 9 9 10 10 9 9 9 9 9 9 8 7 7 8 8 8 8 7 6 6 6 6 6 6 5 5 4
8 9 8 9 10 10 10 10 10 9 9 8 8 8 8 8 9 9 9 9 9 9 9 8 8 8 7 7 7 7 7 7 7 6 6 6 6 6 6 5 5 4 4
8 8 8 8 8 9 9 10 9 8 8 8 9 9 8 8 8 9 8 9 9 8 9 7 7 7 7 7 7 7 7 7 6 6 6 5 5 5 4 4 4 3 2
8 8 7 8 9 9 9 9 8 8 9 8 9 9 8 8 8 8 9 9 8 8 8 7 7 7 7 7 7 6 7 6 6 5 5 4 4 3 3 2 1 1 1
8 7 7 8 10 9 9 8 8 8 8 9 9 8 8 8 8 8 8 8 8 7 7 7 7 7 6 6 6 6 6 5 5 4 4 3 2 2 2 2 1 0 0
8 8 7 8 9 9 8 8 8 8 8 8 8 8 8 8 8 8 7 7 7 6 6 6 7 6 6 6 6 5 5 4 3 3 3 2 2 2 1 1 -0 -1 -1
9 8 7 8 8 9 8 8 8 8 8 8 8 8 8 7 7 7 7 7 6 6 6 6 6 6 5 5 5 5 4 4 2 2 1 1 0 -0 -0 -1 -2 -2 -2
9 8 8 8 8 8 8 8 7 7 8 8 7 7 7 7 6 6 7 7 6 6 5 5 5 5 4 4 4 4 3 2 1 1 0 -1 -2 -2 -3 -2 -3 -3 -4
8 8 8 8 8 8 7 7 7 7 7 7 6 6 6 6 6 6 6 6 6 6 6 6 5 4 4 3 3 2 2 0 -1 -1 -2 -2 -2 -3 -3 -4 -4 -5 -4
8 8 8 8 7 7 7 6 6 6 6 6 6 5 5 5 5 5 5 6 7 7 7 6 5 4 4 3 2 2 1 0 -1 -2 -2 -2 -3 -3 -4 -4 -5 -5 -5
8 7 7 7 7 7 6 6 5 5 6 5 5 5 5 4 5 5 6 7 6 6 5 5 4 4 3 3 2 2 1 -1 -2 -2 -3 -3 -3 -4 -5 -5 -5 -5 -5
7 7 6 6 6 5 6 6 6 5 5 5 6 6 6 6 6 6 6 6 6 5 4 4 4 3 3 2 1 0 -0 -1 -2 -3 -3 -4 -4 -5 -6 -6 -6 -6 -5
7 7 6 5 5 4 4 4 5 5 6 6 7 7 7 6 6 6 6 5 5 4 3 3 2 1 1 1 1 0 -1 -2 -2 -3 -3 -3 -4 -6 -6 -6 -6 -6 -6
7 6 6 5 5 4 4 4 4 5 5 6 7 7 7 7 6 6 5 5 4 3 3 2 1 1 0 0 -0 -1 -1 -2 -2 -2 -3 -3 -5 -6 -7 -7 -7 -7 -7
8 6 6 5 5 5 4 4 4 4 5 5 6 7 7 7 6 5 5 5 4 3 3 1 1 1 0 -0 -1 -1 -2 -2 -2 -3 -2 -3 -4 -5 -6 -7 -7 -7 -7
8 7 7 6 6 6 5 5 5 6 6 5 5 6 6 6 5 5 5 4 3 3 2 2 1 1 0 -0 -1 -2 -2 -2 -2 -2 -2 -3 -4 -6 -7 -7 -7 -8 -8
8 6 6 6 6 7 6 5 6 6 7 7 6 5 5 5 5 4 5 4 3 3 2 2 1 0 -0 -1 -1 -1 -2 -2 -2 -2 -2 -3 -3 -5 -8 -8 -8 -9 -9
8 7 6 6 6 6 6 6 6 6 7 7 6 6 6 5 5 5 5 4 3 3 2 2 1 0 -0 -1 -1 -1 -2 -1 -1 -1 -1 -2 -3 -4 -6 -7 -9 -9 -9
7 6 6 6 6 7 7 7 6 6 7 7 7 7 7 7 6 5 5 4 4 3 3 2 1 0 0 -0 -0 -1 -1 -1 -1 -1 -2 -2 -4 -6 -6 -8 -9 -9 -9
7 6 6 6 7 6 7 7 6 7 7 7 7 6 6 6 6 5 5 4 4 3 3 2 1 0 0 0 0 0 -0 -0 -1 -1 -2 -3 -4 -5 -6 -8 -8 -9 -10
6 6 6 6 7 7 7 7 7 7 7 7 7 7 6 6 6 6 5 4 4 3 3 2 1 1 1 1 1 1 0 0 -0 -1 -2 -3 -4 -5 -6 -7 -9 -10 -10
6 6 6 7 7 7 7 7 7 7 7 7 7 7 7 6 6 6 5 5 4 4 3 2 2 1 1 1 1 1 0 -0 -1 -1 -2 -3 -4 -5 -6 -7 -8 -10 -9
6 6 6 8 7 7 6 7 7 7 7 7 8 7 7 6 7 6 5 5 4 4 3 2 2 2 2 2 1 1 0 -0 -1 -1 -2 -2 -3 -4 -6 -7 -8 -9 -9
6 6 6 7 7 6 6 7 7 7 7 7 8 8 7 7 7 6 6 5 4 4 3 3 2 2 2 1 1 1 0 -0 -1 -1 -2 -2 -3 -4 -5 -7 -8 -9 -9

GFSGL_850_temp_171.txt.gz
Temp
9 9 9 9 9 9 9 9 9 10 10 11 10 9 10 9 9 10 10 10 10 10 10 10 9 9 9 8 8 7 8 8 8 8 7 8 7 7 7 6 6 7 7
9 9 9 9 9 9 9 10 10 11 11 11 11 10 9 10 9 9 10 10 10 10 9 9 9 9 9 9 8 7 7 8 8 8 7 7 7 6 6 6 6 5 5
9 9 9 9 9 10 10 10 10 10 10 10 10 10 8 9 9 9 10 10 10 9 9 9 9 9 9 8 8 8 7 7 7 7 7 7 6 6 5 5 5 4 4
9 8 8 8 9 9 10 9 9 9 8 8 9 8 8 8 9 9 9 9 9 9 9 9 9 8 8 7 7 7 7 7 7 7 7 6 6 5 5 5 4 4 3
8 8 7 8 8 9 9 9 8 8 8 8 8 8 8 8 8 9 9 9 9 9 8 7 8 7 7 7 7 7 7 7 7 6 6 5 5 5 4 4 3 2 2
8 7 7 8 8 9 9 8 8 9 8 8 8 8 8 8 8 8 9 9 9 9 9 7 7 7 7 7 7 7 7 6 6 6 5 6 4 4 3 3 2 1 1
8 7 7 8 8 9 9 8 8 8 8 8 8 8 8 8 8 8 8 8 8 8 7 7 7 7 7 7 7 7 6 5 5 5 4 4 3 3 2 1 1 0 -0
8 7 7 9 9 9 8 8 9 8 8 8 8 8 8 8 8 8 8 8 8 7 7 7 7 6 6 6 6 6 5 5 4 4 3 2 2 1 1 1 -0 -1 -2
8 7 9 8 8 9 8 8 8 8 8 8 8 8 8 7 7 7 8 8 7 6 6 6 6 6 6 6 6 6 5 4 2 1 1 1 -1 -1 -1 -1 -1 -2 -2
8 9 8 8 8 8 8 8 8 8 8 8 8 7 7 7 7 7 7 7 6 6 6 6 6 6 6 5 4 4 3 2 1 0 -1 -1 -2 -2 -2 -2 -3 -3 -4
8 8 8 7 8 8 8 7 7 7 7 7 7 6 6 6 6 7 6 6 7 7 6 6 5 5 4 4 3 2 2 0 -1 -2 -2 -2 -2 -3 -3 -4 -4 -5 -5
9 8 8 7 7 7 7 7 7 7 7 6 6 6 6 6 6 5 6 7 6 7 6 5 4 3 3 2 1 1 -0 -1 -1 -2 -2 -2 -3 -3 -4 -5 -5 -5 -5
8 7 7 7 7 7 7 6 6 6 7 6 6 5 5 4 5 6 7 6 6 6 5 4 4 3 3 2 2 1 0 -0 -1 -1 -2 -2 -3 -4 -5 -6 -6 -5 -5
8 7 7 7 6 6 6 6 7 7 6 5 5 4 4 5 6 6 6 6 5 5 5 4 3 3 2 2 2 1 0 -1 -1 -2 -2 -3 -4 -5 -6 -6 -6 -6 -6
8 7 6 6 6 5 5 6 7 6 6 6 6 6 7 6 6 6 6 6 5 4 4 3 2 2 2 1 1 0 -0 -1 -1 -2 -2 -2 -3 -5 -6 -7 -7 -7 -7
7 6 6 5 5 5 5 5 5 5 5 5 6 7 6 6 6 5 5 5 4 4 4 3 2 2 1 1 0 -0 -1 -1 -1 -1 -2 -2 -3 -4 -5 -7 -8 -8 -8
8 6 5 5 6 4 4 4 4 3 4 5 6 6 6 7 6 5 5 5 4 4 3 2 2 1 1 1 -0 -0 -0 -1 -1 -2 -1 -1 -2 -2 -4 -7 -8 -9 -8
7 7 6 6 6 5 4 4 5 5 4 4 4 6 6 6 6 5 5 4 4 3 2 2 2 1 1 1 0 0 -0 -1 -1 -1 -1 -2 -2 -3 -5 -6 -9 -9 -9
7 6 6 6 6 6 5 5 5 6 5 5 5 4 5 5 5 4 4 4 4 3 2 2 1 2 2 1 1 0 -1 -1 -1 -1 -1 -2 -3 -4 -6 -7 -9 -9 -9
7 6 7 6 6 6 5 5 5 6 6 6 6 6 5 5 5 5 4 4 4 3 2 2 2 2 2 1 0 -0 -1 -1 -1 -2 -2 -2 -3 -5 -6 -7 -9 -9 -10
6 6 6 6 6 6 6 6 6 6 6 6 7 6 6 6 6 5 5 4 4 3 2 2 3 2 2 1 1 0 -1 -1 -1 -2 -2 -3 -4 -5 -6 -7 -8 -9 -10
6 6 6 6 6 6 6 7 6 7 7 6 6 6 6 6 5 5 5 4 4 3 3 3 3 2 2 1 1 0 -0 -1 -1 -2 -2 -3 -4 -5 -6 -7 -8 -9 -9
6 6 6 6 6 7 7 7 7 7 7 7 7 6 6 6 5 5 5 4 4 3 3 3 3 2 2 1 1 0 -0 -1 -1 -2 -2 -3 -3 -4 -5 -7 -8 -9 -9
6 6 6 6 6 6 7 7 7 7 7 7 7 7 7 7 6 5 5 5 4 4 3 3 2 2 2 1 1 0 -0 -0 -1 -1 -2 -3 -3 -4 -5 -6 -7 -8 -9
6 6 6 6 7 6 7 7 7 7 7 8 7 7 7 7 6 6 5 5 4 4 3 3 3 2 2 1 1 0 -0 -0 -1 -2 -2 -3 -3 -4 -5 -6 -7 -8 -8
5 6 6 6 6 7 7 7 7 7 8 8 8 8 7 7 7 6 6 5 5 4 3 3 3 2 2 1 1 0 -0 -0 -1 -1 -2 -3 -3 -4 -5 -6 -7 -7 -8

GFSGL_850_temp_174.txt.gz
Temp
10 10 10 10 10 10 10 9 9 9 9 9 10 9 9 9 9 9 9 10 10 10 10 10 10 10 9 9 9 8 7 7 8 7 7 7 7 7 7 7 7 6 6
9 9 9 9 9 9 8 9 10 10 10 10 10 9 10 9 9 9 10 10 10 10 10 9 10 9 9 9 9 8 7 8 8 7 7 7 7 7 7 6 6 6 5
9 9 9 9 8 8 9 10 10 10 10 10 10 10 9 9 9 9 10 10 10 10 9 9 9 9 9 9 8 8 7 7 7 7 7 7 6 6 6 6 5 5 4
8 9 8 9 9 9 10 10 10 9 9 9 8 8 8 8 8 9 9 9 10 10 9 10 9 8 8 8 8 7 7 7 7 7 7 6 6 6 5 5 5 4 4
9 8 8 8 8 9 9 9 9 8 8 8 8 8 8 8 9 9 9 10 10 10 9 9 8 8 8 7 7 7 7 7 7 7 6 6 5 5 4 4 3 3 2
8 7 7 7 8 8 8 8 8 8 8 8 8 9 8 8 9 8 9 9 9 9 8 7 6 7 7 7 7 7 7 7 7 6 5 5 5 4 3 2 2 2 1
8 7 7 7 8 8 8 8 8 8 8 8 8 8 8 8 8 8 8 9 9 8 9 8 7 7 7 7 7 7 6 6 6 6 4 4 3 3 2 2 1 1 0
7 7 7 7 8 9 8 8 8 8 8 8 8 8 8 7 8 8 8 8 9 7 7 7 7 6 6 6 6 6 6 5 5 4 3 3 2 2 1 1 0 -0 -1
7 7 7 8 8 8 8 8 8 8 8 8 7 7 7 7 7 8 8 8 8 7 6 6 6 7 6 6 6 6 5 4 2 2 2 2 0 -0 -1 -1 -2 -3 -3
8 7 7 7 8 8 8 8 7 8 8 7 7 7 7 7 7 7 7 8 8 7 6 6 6 6 5 4 4 4 4 2 1 1 0 -0 -1 -2 -2 -2 -3 -4 -4
9 7 7 7 7 8 8 8 8 8 8 7 7 7 7 7 6 7 7 7 7 7 7 6 5 4 4 4 3 3 3 2 0 -1 -1 -2 -3 -3 -4 -4 -5 -5 -5
8 7 7 7 7 7 7 7 7 7 7 7 7 6 6 6 6 5 6 6 6 7 6 5 4 3 2 2 2 2 1 -0 -1 -2 -2 -2 -3 -3 -3 -4 -5 -5 -5
8 7 7 7 7 7 7 7 7 7 6 6 6 6 5 5 5 5 6 6 5 6 5 4 3 3 2 2 1 0 -1 -1 -1 -1 -1 -2 -2 -3 -4 -4 -5 -6 -6
8 7 7 7 6 7 7 7 7 7 7 6 6 5 5 5 6 6 6 5 5 5 4 3 3 2 2 2 1 1 0 0 -0 -0 -1 -1 -2 -4 -4 -5 -5 -6 -6
8 7 6 6 6 6 6 7 7 7 7 5 5 6 6 6 6 6 5 5 4 4 3 3 3 2 2 2 1 1 0 0 -0 -0 -1 -2 -2 -3 -4 -5 -6 -6 -7
7 7 6 6 6 7 6 6 5 6 6 5 5 6 5 6 5 5 4 4 4 3 3 3 3 2 2 1 1 1 0 0 -0 -1 -1 -2 -2 -3 -4 -5 -6 -8 -9
8 7 6 6 6 6 6 6 6 4 4 4 4 5 5 6 5 5 4 4 3 3 3 3 2 2 1 1 1 1 0 -0 -1 -1 -1 -2 -3 -4 -4 -5 -6 -9 -9
7 7 7 6 6 5 5 5 6 5 5 4 4 5 5 5 5 4 4 4 4 2 2 2 2 1 1 1 1 0 0 -0 -1 -1 -2 -3 -3 -4 -5 -6 -8 -9 -9
7 7 7 6 5 5 4 4 5 5 6 5 4 4 4 5 4 4 4 3 4 3 3 2 1 1 1 1 1 1 0 -1 -1 -2 -2 -3 -4 -4 -5 -6 -8 -8 -10
6 7 7 6 5 5 4 4 4 5 6 6 6 5 5 4 5 4 4 4 4 3 3 2 2 1 2 2 1 1 0 -1 -1 -2 -2 -3 -4 -5 -6 -7 -7 -8 -9
6 6 6 6 6 6 5 5 5 5 6 6 6 6 6 6 5 5 4 4 4 3 3 2 2 2 2 2 1 1 0 -1 -1 -2 -2 -3 -4 -5 -6 -7 -8 -9 -9
6 6 6 6 6 6 5 5 6 6 6 6 6 6 6 5 5 5 4 4 4 3 3 2 2 2 2 2 1 1 0 -0 -1 -2 -2 -3 -4 -5 -6 -7 -8 -8 -9
6 6 6 6 6 6 6 5 6 6 6 6 6 6 6 6 5 5 4 4 4 3 3 2 2 2 2 2 1 1 0 -0 -1 -2 -2 -3 -4 -5 -6 -6 -7 -8 -9
6 6 6 6 6 6 6 6 6 6 7 6 6 7 6 6 6 5 4 4 4 4 3 2 2 2 2 2 1 1 0 -0 -1 -2 -2 -3 -4 -5 -5 -6 -7 -8 -8
6 6 6 6 6 6 6 6 6 7 7 7 7 7 7 6 6 5 5 5 4 4 3 2 2 2 2 2 1 1 0 -0 -1 -2 -2 -3 -4 -4 -5 -6 -6 -7 -8
6 6 5 6 6 6 6 7 7 7 7 7 7 7 7 7 6 6 6 5 5 4 3 2 2 2 2 2 1 1 0 -0 -1 -2 -2 -3 -4 -4 -5 -6 -6 -7 -7

GFSGL_850_temp_180.txt.gz
Temp
12 12 14 14 12 13 12 11 11 10 10 9 9 9 10 9 9 9 9 10 10 9 9 9 9 9 8 9 9 8 8 8 8 7 7 7 6 7 7 6 6 6 6
13 12 12 11 11 11 10 10 9 9 9 8 8 9 9 9 9 9 9 9 9 9 9 9 9 10 9 9 8 9 8 8 7 7 7 7 6 6 6 6 6 5 5
12 11 11 11 10 10 10 9 9 9 9 8 8 8 9 9 9 9 9 9 9 9 10 9 9 9 8 9 8 8 8 7 7 7 7 6 6 6 5 5 5 4 4
10 10 9 9 9 9 9 8 8 8 9 9 9 9 8 8 8 9 9 9 10 10 9 9 9 8 8 8 8 8 7 7 7 7 7 6 6 5 5 5 4 4 4
9 9 9 9 9 9 8 8 9 9 8 8 7 7 8 7 8 9 9 9 9 9 9 9 8 8 8 8 7 7 7 7 7 7 6 6 5 4 4 4 3 3 2
9 8 9 9 9 9 9 9 8 8 8 7 7 7 7 7 8 8 9 9 9 9 9 8 7 7 7 7 7 7 7 7 6 6 5 5 4 4 3 3 2 2 1
9 8 8 8 9 9 7 7 7 7 7 7 7 8 8 8 8 8 9 9 9 8 7 7 7 7 7 7 7 7 6 6 5 4 4 4 3 3 2 2 1 0 -1
8 8 8 8 7 7 7 8 7 7 7 8 7 8 8 8 8 8 8 8 8 7 6 6 6 6 6 6 6 6 6 5 4 4 3 2 2 2 1 1 -0 -1 -2
8 8 8 7 7 7 7 7 7 7 7 7 7 7 8 8 8 8 8 8 7 6 5 5 6 7 6 5 6 6 5 4 2 2 2 1 1 1 1 -1 -1 -2 -3
8 8 8 7 8 7 7 7 7 7 7 7 7 7 7 7 7 7 9 8 8 7 6 6 6 6 5 3 4 4 4 2 1 1 1 1 0 -0 -0 -1 -2 -3 -4
8 8 7 7 7 7 7 7 7 7 7 7 7 7 7 7 6 7 7 7 8 8 7 6 5 4 4 3 3 3 3 1 1 1 0 -0 -1 -1 -2 -3 -4 -4 -5
7 7 7 7 7 7 7 7 7 7 7 7 7 7 6 6 6 6 6 7 7 7 6 5 4 3 3 3 3 2 1 1 0 -0 -1 -1 -2 -2 -3 -4 -4 -5 -6
7 7 7 7 7 7 7 7 7 7 7 7 6 6 6 5 5 5 6 6 5 6 5 5 4 3 3 3 2 1 0 -0 -0 -1 -1 -1 -2 -3 -4 -4 -5 -6 -7
7 6 7 7 7 7 7 7 7 7 7 7 7 6 5 5 6 6 6 6 5 6 5 4 3 3 2 2 1 0 -0 -1 -1 -1 -1 -2 -2 -3 -3 -3 -4 -4 -5
7 7 7 7 7 6 6 7 7 7 7 6 6 6 6 6 6 6 6 5 5 4 4 3 3 2 2 2 1 -0 -0 -0 -0 -1 -1 -2 -2 -3 -3 -4 -5 -6 -7
7 7 7 7 6 6 6 6 6 6 6 6 5 6 6 6 5 5 5 4 4 3 3 3 2 2 2 1 -0 -0 -0 -0 -0 -1 -1 -2 -2 -3 -4 -5 -6 -7 -8
7 7 7 6 6 6 6 6 6 5 4 5 5 5 6 6 5 5 4 4 3 3 3 2 2 1 1 0 0 -0 0 -0 -1 -1 -1 -2 -3 -4 -4 -5 -6 -7 -8
7 7 6 6 6 6 6 6 5 5 4 4 4 5 5 5 5 4 4 4 3 2 2 2 2 1 1 1 0 0 0 -0 -1 -1 -2 -2 -3 -4 -5 -5 -6 -7 -8
7 6 6 6 6 6 6 6 6 5 3 4 4 4 4 5 4 4 3 3 3 3 2 2 2 1 1 1 0 0 0 -0 -1 -1 -2 -3 -3 -4 -5 -6 -7 -7 -8
6 6 6 6 6 6 6 6 6 5 4 4 5 5 4 5 5 4 3 3 3 2 2 2 2 2 1 1 1 0 -0 -0 -1 -1 -2 -3 -3 -4 -5 -6 -6 -7 -7
6 6 6 6 6 6 6 6 6 5 5 5 5 6 6 6 5 4 4 3 3 3 3 2 2 2 2 1 1 0 -0 -0 -1 -1 -2 -3 -3 -4 -5 -6 -6 -7 -7
6 6 6 6 6 6 6 5 5 5 5 6 5 5 5 5 5 4 4 4 3 3 3 2 2 2 1 1 1 0 -0 -0 -1 -1 -2 -2 -3 -4 -5 -5 -6 -6 -7
5 5 5 5 5 5 5 4 5 5 5 5 6 6 5 5 4 4 4 4 3 3 3 3 2 2 2 1 1 0 -0 -0 -1 -1 -2 -2 -3 -4 -4 -5 -5 -6 -7
5 5 5 5 5 4 4 4 5 5 5 5 6 6 6 5 4 4 4 4 4 3 3 3 3 2 2 1 1 1 0 -0 -1 -1 -2 -2 -3 -4 -4 -5 -5 -6 -6
5 5 5 5 5 5 5 5 5 5 5 6 6 6 5 5 5 4 4 4 4 3 3 3 3 2 2 1 1 1 0 -0 -1 -1 -2 -2 -3 -4 -4 -5 -5 -6 -6
5 5 5 5 5 5 5 5 5 5 6 6 6 6 5 5 5 5 4 4 4 4 3 3 3 3 2 2 1 1 0 -0 -1 -1 -2 -2 -3 -3 -4 -4 -5 -5 -6

GFSGL_850_temp_183.txt.gz
Temp
10 11 12 13 12 12 13 12 12 11 11 10 9 9 9 10 9 9 9 10 9 9 9 10 9 9 9 9 9 8 8 8 8 7 7 7 7 7 7 7 6 6 6
11 11 12 13 13 11 12 11 11 10 9 9 9 9 9 9 9 9 9 9 9 10 10 10 9 9 8 8 8 8 8 8 8 8 7 7 6 6 6 6 6 5 5
11 11 12 12 12 10 11 10 10 9 9 8 8 9 9 9 9 9 9 9 9 10 9 9 9 9 8 9 8 8 8 7 7 7 7 6 6 6 5 5 5 5 4
10 10 11 11 12 10 10 10 9 8 8 8 8 9 9 9 9 9 9 9 9 9 9 9 8 8 8 8 8 8 7 7 7 7 7 6 5 5 4 4 4 4 4
9 9 9 9 10 9 9 9 8 8 8 8 8 8 8 8 9 9 9 9 9 9 9 9 8 8 8 8 7 7 7 7 7 6 6 5 5 4 4 3 3 2 2
9 9 9 9 9 9 9 8 8 8 8 7 7 7 8 8 8 8 9 9 8 8 8 8 7 7 7 7 7 7 7 6 6 5 5 4 4 3 3 2 2 1 -0
8 8 9 9 8 8 8 8 8 7 7 7 7 7 7 7 8 8 8 8 8 7 8 7 7 7 7 7 7 6 6 6 5 5 5 4 3 3 2 1 1 0 -1
8 8 8 8 8 8 7 8 7 7 7 8 8 8 8 8 8 8 8 8 7 7 7 7 6 6 6 6 6 6 6 5 4 4 4 3 2 1 1 0 -1 -1 -2
8 8 8 8 8 7 7 7 7 7 7 7 8 8 8 7 8 7 8 7 7 6 6 6 6 6 5 5 6 6 5 4 3 2 2 1 1 1 0 -1 -1 -2 -3
8 8 8 8 7 7 7 7 7 7 7 7 7 7 7 7 7 8 8 9 8 7 6 6 5 5 4 4 5 4 4 2 1 1 1 1 0 0 -0 -1 -1 -2 -4
8 8 8 8 7 7 7 7 7 7 7 7 7 7 7 7 6 7 7 8 9 8 6 5 4 4 4 4 3 3 3 2 1 1 1 0 -0 -1 -1 -2 -3 -3 -5
7 8 8 7 7 7 7 7 7 7 7 6 7 6 6 6 6 6 6 8 7 7 6 5 4 3 3 3 3 3 2 1 1 0 -0 -1 -1 -2 -3 -3 -4 -4 -5
7 7 7 7 7 7 7 6 6 7 7 7 6 6 6 5 5 6 6 6 6 6 5 4 4 3 3 3 2 2 1 1 -0 -0 -1 -1 -2 -3 -4 -4 -4 -5 -6
7 7 7 7 6 6 7 7 7 7 7 7 7 6 6 5 6 6 6 6 5 5 4 4 3 3 3 2 2 1 1 -0 -0 -1 -1 -2 -3 -3 -3 -3 -4 -5 -6
7 7 7 7 6 6 6 7 7 7 7 7 7 7 7 6 6 6 6 5 5 4 4 3 3 3 2 2 1 0 -0 -0 -1 -1 -2 -3 -3 -3 -3 -4 -5 -6 -7
7 6 6 6 6 6 6 6 7 7 7 6 6 7 6 6 5 5 4 4 4 4 4 4 3 2 2 1 1 0 -0 -1 -1 -2 -2 -2 -3 -3 -4 -4 -5 -6 -8
7 6 6 6 6 6 6 6 6 5 5 5 5 6 6 6 5 4 4 4 3 3 4 3 3 2 1 1 0 -0 -0 -1 -2 -2 -2 -3 -3 -3 -4 -4 -5 -6 -7
7 6 6 6 6 6 6 6 5 6 5 4 4 5 5 5 5 4 4 4 3 2 3 3 3 2 1 1 0 -0 -0 -1 -2 -2 -2 -3 -3 -4 -4 -5 -5 -6 -7
6 6 6 6 6 6 6 6 6 6 5 4 4 4 4 4 4 3 3 3 4 3 3 3 2 2 1 1 0 -0 -1 -1 -2 -2 -2 -3 -3 -4 -4 -5 -5 -6 -6
6 6 6 6 6 6 6 6 6 5 5 5 4 4 4 4 4 4 3 3 3 3 3 3 2 2 1 1 0 -0 -0 -1 -2 -2 -2 -3 -3 -4 -4 -5 -5 -6 -6
6 6 6 6 6 6 6 6 6 6 6 6 5 5 5 5 5 4 4 3 3 3 3 2 2 2 1 1 0 0 -0 -1 -1 -2 -2 -3 -3 -4 -4 -5 -5 -5 -6
6 6 6 6 6 6 6 6 7 6 6 6 6 5 4 4 5 4 4 3 3 3 3 2 2 2 1 1 1 0 -0 -1 -1 -2 -2 -3 -3 -3 -4 -4 -5 -5 -5
5 6 6 6 6 5 6 7 6 6 6 6 6 5 4 4 4 4 4 4 3 3 3 3 2 2 2 1 1 0 -0 -1 -1 -2 -2 -3 -3 -3 -4 -4 -4 -5 -5
5 6 6 6 5 5 6 6 5 5 5 6 6 5 5 4 4 4 4 4 3 3 3 3 2 2 2 1 1 1 0 -1 -1 -2 -2 -3 -3 -3 -3 -4 -4 -5 -5
4 5 5 5 5 5 5 5 5 5 5 6 6 5 5 4 4 4 4 3 3 3 3 3 3 2 2 1 1 1 0 -0 -1 -1 -2 -3 -3 -3 -3 -4 -4 -4 -4
4 4 5 5 5 5 4 5 5 5 5 6 6 6 5 5 4 4 4 4 3 3 3 3 3 2 2 2 1 1 0 -0 -1 -1 -2 -2 -3 -3 -3 -3 -4 -4 -4

GFSGL_850_temp_186.txt.gz
Temp
10 10 11 11 11 12 12 12 12 11 12 12 11 11 10 10 10 10 9 10 9 9 10 9 9 9 9 9 9 8 8 8 8 7 7 7 7 7 7 7 6 6 6
10 10 10 10 11 12 12 12 11 10 11 11 10 10 10 10 10 9 9 10 9 9 9 9 9 9 9 9 8 8 8 8 7 7 7 6 6 6 6 6 6 6 5
11 10 10 10 11 11 12 11 11 11 10 10 10 9 10 10 10 9 9 10 9 9 9 9 9 10 9 9 9 8 8 7 7 7 7 6 6 6 5 5 5 5 4
9 10 10 10 11 11 11 11 11 9 10 9 9 9 9 10 9 9 9 10 9 9 9 9 9 9 9 8 8 8 7 7 7 7 6 6 5 5 5 4 4 4 4
9 11 9 9 10 10 9 10 9 9 9 9 9 9 9 9 9 9 9 9 9 9 9 9 9 8 8 8 7 7 7 7 7 6 6 5 5 4 4 3 2 1 2
8 9 9 9 9 9 9 9 9 9 8 8 8 8 9 9 9 9 9 9 9 9 9 9 8 7 7 7 7 7 7 6 6 5 5 4 3 3 3 2 0 1 1
8 9 8 8 8 8 8 8 8 8 8 8 8 8 8 8 8 8 8 9 8 8 8 8 7 7 7 7 7 7 6 5 5 5 5 3 3 2 1 -0 -0 -1 -2
7 8 8 8 8 8 8 8 8 7 7 7 7 7 7 7 8 8 8 8 8 7 7 7 6 6 6 6 6 6 5 5 4 4 4 3 2 2 1 1 -0 -2 -3
7 8 8 8 9 8 8 8 7 7 7 7 7 7 7 7 8 8 8 7 7 6 6 6 6 6 6 6 6 6 5 4 3 3 3 2 1 1 1 -2 -2 -2 -2
7 7 8 8 8 8 7 7 7 7 7 7 7 7 8 7 7 8 7 7 6 6 6 6 6 6 5 4 5 5 4 2 2 1 1 1 1 0 0 -0 -1 -3 -3
7 7 8 7 7 7 7 7 7 7 7 7 7 7 7 7 7 7 7 7 7 7 6 5 5 4 4 4 4 3 3 2 1 1 0 0 -0 -0 -1 -1 -2 -3 -5
6 7 8 7 7 7 7 7 7 7 7 6 6 6 6 6 6 6 6 8 7 7 6 5 4 4 4 3 3 3 2 2 1 0 -0 -1 -1 -2 -2 -2 -3 -4 -5
6 7 7 7 7 7 7 7 7 7 7 6 6 6 6 5 5 5 7 7 7 6 5 5 4 4 3 3 3 2 2 1 0 -0 -1 -1 -2 -3 -4 -5 -5 -7 -8
6 7 7 7 7 7 7 6 6 6 6 6 6 5 5 5 5 5 5 6 6 6 5 4 4 3 3 2 2 1 1 1 -0 -1 -2 -3 -4 -5 -5 -5 -7 -7 -7
7 6 7 7 7 6 6 6 6 6 7 8 7 7 7 6 5 6 6 6 6 6 5 3 2 2 2 2 2 1 0 -0 -1 -2 -3 -4 -4 -5 -4 -5 -6 -7 -7
7 6 7 7 6 6 6 5 6 7 7 7 7 8 7 7 6 5 5 5 5 4 4 3 2 2 2 1 1 0 -0 -1 -1 -2 -3 -3 -4 -4 -5 -6 -7 -7 -7
7 6 7 6 6 6 6 6 6 5 6 6 6 7 7 6 5 5 5 4 4 3 3 3 2 2 2 1 1 0 -1 -1 -1 -2 -3 -3 -3 -4 -5 -6 -7 -7 -7
7 7 7 6 6 6 7 6 6 5 5 4 5 6 6 5 5 5 4 4 3 3 3 3 2 2 2 1 1 0 -1 -1 -2 -2 -3 -3 -3 -3 -4 -5 -5 -6 -7
6 7 6 6 6 6 7 6 6 5 4 4 4 4 4 4 4 3 3 4 4 3 3 3 2 2 2 1 1 0 -1 -1 -2 -2 -2 -3 -3 -3 -4 -4 -5 -5 -7
6 6 6 6 6 6 6 6 6 5 5 5 4 4 4 4 4 3 3 3 3 3 3 3 2 2 2 1 0 -0 -1 -1 -2 -2 -2 -3 -3 -3 -4 -4 -5 -6 -7
6 6 6 6 6 6 6 6 6 6 6 5 5 5 5 4 4 4 3 3 3 3 3 3 2 2 1 1 1 0 -1 -1 -2 -2 -2 -3 -3 -3 -4 -4 -5 -6 -6
6 6 5 6 6 6 6 6 6 6 6 6 6 4 4 4 4 4 4 3 3 3 3 3 2 2 1 1 1 0 -1 -1 -1 -2 -2 -3 -3 -3 -4 -4 -5 -5 -6
6 6 6 6 6 6 6 6 5 6 6 6 6 5 4 4 4 4 4 4 4 3 3 3 3 2 2 1 1 0 -0 -1 -1 -2 -2 -2 -3 -3 -3 -4 -4 -4 -4
5 6 5 6 6 6 6 5 5 6 6 6 6 5 5 4 4 4 4 4 4 3 3 3 2 2 2 1 1 0 -0 -1 -1 -1 -2 -2 -2 -3 -3 -3 -4 -4 -5
4 5 5 6 6 6 5 6 5 6 6 6 6 6 5 5 4 4 4 4 4 4 3 3 3 2 2 1 1 0 -0 -1 -1 -1 -2 -2 -2 -3 -3 -3 -4 -4 -4
4 5 5 5 5 5 5 6 5 5 6 6 6 6 6 5 5 5 4 4 4 4 3 3 3 2 2 1 1 1 0 -0 -1 -1 -2 -2 -2 -3 -3 -3 -3 -4 -4